TimeEST,TemperatureF,Dew PointF,Humidity,Sea Level PressureIn,VisibilityMPH,Wind Direction,Wind SpeedMPH,Gust SpeedMPH,PrecipitationIn,Events,Conditions,WindDirDegrees,DateUTC
12:15 AM,41.0,30.2,65,29.75,10.0,West,9.2,17.3,N/A,,Overcast,270,2012-11-04 04:15:00
12:35 AM,41.0,30.2,65,29.76,10.0,West,9.2,-,N/A,,Overcast,260,2012-11-04 04:35:00
12:55 AM,41.0,30.2,65,29.76,10.0,West,9.2,16.1,N/A,,Overcast,260,2012-11-04 04:55:00
1:15 AM,41.0,30.2,65,29.76,10.0,West,12.7,19.6,N/A,,Overcast,260,2012-11-04 05:15:00
1:35 AM,41.0,30.2,65,29.76,10.0,West,9.2,-,N/A,,Overcast,260,2012-11-04 05:35:00
1:55 AM,41.0,30.2,65,29.76,10.0,West,5.8,-,N/A,,Overcast,260,2012-11-04 05:55:00
1:15 AM,41.0,30.2,65,29.76,10.0,WNW,3.5,16.1,N/A,,Overcast,290,2012-11-04 06:15:00
1:35 AM,41.0,30.2,65,29.76,10.0,West,6.9,19.6,N/A,,Overcast,280,2012-11-04 06:35:00
1:55 AM,41.0,30.2,65,29.77,10.0,West,8.1,-,N/A,,Overcast,260,2012-11-04 06:55:00
2:15 AM,41.0,30.2,65,29.77,10.0,West,4.6,16.1,N/A,,Overcast,270,2012-11-04 07:15:00
2:35 AM,41.0,30.2,65,29.77,10.0,West,9.2,-,N/A,,Overcast,270,2012-11-04 07:35:00
2:55 AM,41.0,30.2,65,29.78,10.0,West,4.6,-,N/A,,Overcast,270,2012-11-04 07:55:00
3:15 AM,41.0,30.2,65,29.78,10.0,West,9.2,-,N/A,,Overcast,260,2012-11-04 08:15:00
3:35 AM,41.0,30.2,65,29.78,10.0,WSW,10.4,-,N/A,,Overcast,240,2012-11-04 08:35:00
3:55 AM,39.2,30.2,70,29.79,10.0,WSW,12.7,17.3,N/A,,Overcast,250,2012-11-04 08:55:00
4:15 AM,39.2,30.2,70,29.80,10.0,West,9.2,-,N/A,,Overcast,260,2012-11-04 09:15:00
4:35 AM,39.2,30.2,70,29.80,10.0,WSW,8.1,-,N/A,,Overcast,250,2012-11-04 09:35:00
4:55 AM,39.2,30.2,70,29.80,10.0,West,5.8,-,N/A,,Overcast,270,2012-11-04 09:55:00
5:15 AM,39.2,30.2,70,29.80,10.0,West,10.4,-,N/A,,Overcast,260,2012-11-04 10:15:00
5:35 AM,39.2,30.2,70,29.80,10.0,West,10.4,-,N/A,,Mostly Cloudy,260,2012-11-04 10:35:00
5:55 AM,39.2,30.2,70,29.81,10.0,West,9.2,-,N/A,,Partly Cloudy,260,2012-11-04 10:55:00
6:15 AM,39.2,28.4,65,29.81,10.0,West,8.1,-,N/A,,Clear,260,2012-11-04 11:15:00
6:35 AM,39.2,28.4,65,29.82,10.0,West,8.1,-,N/A,,Clear,280,2012-11-04 11:35:00
6:55 AM,39.2,28.4,65,29.83,10.0,WNW,5.8,-,N/A,,Partly Cloudy,290,2012-11-04 11:55:00
7:15 AM,39.2,28.4,65,29.84,10.0,West,8.1,-,N/A,,Mostly Cloudy,260,2012-11-04 12:15:00
7:35 AM,39.2,28.4,65,29.84,10.0,West,6.9,-,N/A,,Scattered Clouds,270,2012-11-04 12:35:00
7:55 AM,41.0,28.4,61,29.84,10.0,West,6.9,-,N/A,,Clear,280,2012-11-04 12:55:00
8:15 AM,41.0,28.4,61,29.85,10.0,WNW,6.9,-,N/A,,Clear,290,2012-11-04 13:15:00
8:35 AM,42.8,28.4,57,29.85,10.0,West,6.9,16.1,N/A,,Clear,280,2012-11-04 13:35:00
8:55 AM,42.8,28.4,57,29.85,10.0,West,8.1,16.1,N/A,,Scattered Clouds,280,2012-11-04 13:55:00
9:15 AM,42.8,30.2,61,29.85,10.0,West,10.4,-,N/A,,Overcast,260,2012-11-04 14:15:00
9:35 AM,42.8,28.4,57,29.85,10.0,West,10.4,17.3,N/A,,Overcast,280,2012-11-04 14:35:00
9:55 AM,42.8,28.4,57,29.85,10.0,WNW,8.1,-,N/A,,Overcast,300,2012-11-04 14:55:00
10:15 AM,44.6,28.4,53,29.85,10.0,WNW,13.8,19.6,N/A,,Mostly Cloudy,290,2012-11-04 15:15:00
10:35 AM,44.6,28.4,53,29.85,10.0,NW,15.0,18.4,N/A,,Mostly Cloudy,320,2012-11-04 15:35:00
10:55 AM,44.6,28.4,53,29.85,10.0,NW,17.3,24.2,N/A,,Partly Cloudy,310,2012-11-04 15:55:00
11:15 AM,44.6,28.4,53,29.84,10.0,NW,13.8,20.7,N/A,,Clear,320,2012-11-04 16:15:00
11:35 AM,44.6,28.4,53,29.84,10.0,WNW,10.4,19.6,N/A,,Partly Cloudy,290,2012-11-04 16:35:00
11:55 AM,44.6,28.4,53,29.85,10.0,West,15.0,21.9,N/A,,Scattered Clouds,270,2012-11-04 16:55:00
12:15 PM,44.6,28.4,53,29.85,10.0,West,11.5,23.0,N/A,,Mostly Cloudy,280,2012-11-04 17:15:00
12:35 PM,44.6,28.4,53,29.85,10.0,West,16.1,21.9,N/A,,Mostly Cloudy,260,2012-11-04 17:35:00
12:55 PM,42.8,26.6,53,29.85,10.0,West,11.5,19.6,N/A,,Mostly Cloudy,270,2012-11-04 17:55:00
1:15 PM,42.8,26.6,53,29.85,10.0,WNW,10.4,17.3,N/A,,Overcast,290,2012-11-04 18:15:00
1:35 PM,42.8,26.6,53,29.85,10.0,WNW,9.2,20.7,N/A,,Overcast,290,2012-11-04 18:35:00
1:55 PM,42.8,26.6,53,29.85,10.0,West,12.7,24.2,N/A,,Overcast,260,2012-11-04 18:55:00
2:15 PM,42.8,28.4,57,29.85,10.0,WSW,17.3,20.7,N/A,,Scattered Clouds,250,2012-11-04 19:15:00
2:35 PM,42.8,26.6,53,29.85,10.0,West,12.7,16.1,N/A,,Clear,270,2012-11-04 19:35:00
2:55 PM,42.8,26.6,53,29.85,10.0,West,11.5,17.3,N/A,,Mostly Cloudy,270,2012-11-04 19:55:00
3:15 PM,42.8,26.6,53,29.86,10.0,West,10.4,19.6,N/A,,Overcast,270,2012-11-04 20:15:00
3:35 PM,41.0,26.6,57,29.86,10.0,West,12.7,18.4,N/A,,Overcast,280,2012-11-04 20:35:00
3:55 PM,39.2,26.6,61,29.87,10.0,West,8.1,20.7,N/A,,Scattered Clouds,270,2012-11-04 20:55:00
4:15 PM,39.2,26.6,61,29.87,10.0,West,8.1,-,N/A,,Partly Cloudy,280,2012-11-04 21:15:00
4:35 PM,39.2,26.6,61,29.87,10.0,West,9.2,-,N/A,,Clear,260,2012-11-04 21:35:00
4:55 PM,39.2,26.6,61,29.88,10.0,West,8.1,-,N/A,,Clear,280,2012-11-04 21:55:00
5:15 PM,39.2,26.6,61,29.88,10.0,West,6.9,-,N/A,,Clear,270,2012-11-04 22:15:00
5:35 PM,39.2,26.6,61,29.89,10.0,WNW,8.1,-,N/A,,Clear,290,2012-11-04 22:35:00
5:55 PM,39.2,26.6,61,29.89,10.0,West,5.8,-,N/A,,Partly Cloudy,270,2012-11-04 22:55:00
6:15 PM,39.2,26.6,61,29.89,10.0,WNW,9.2,-,N/A,,Partly Cloudy,290,2012-11-04 23:15:00
6:35 PM,37.4,26.6,65,29.89,10.0,West,6.9,-,N/A,,Clear,260,2012-11-04 23:35:00
6:55 PM,37.4,26.6,65,29.89,10.0,West,5.8,-,N/A,,Clear,280,2012-11-04 23:55:00
7:15 PM,37.4,24.8,60,29.89,10.0,West,4.6,-,N/A,,Partly Cloudy,270,2012-11-05 00:15:00
7:35 PM,37.4,24.8,60,29.90,10.0,West,4.6,-,N/A,,Partly Cloudy,260,2012-11-05 00:35:00
7:55 PM,37.4,24.8,60,29.90,10.0,West,5.8,-,N/A,,Clear,260,2012-11-05 00:55:00
8:15 PM,35.6,24.8,65,29.90,10.0,West,6.9,-,N/A,,Clear,270,2012-11-05 01:15:00
8:35 PM,35.6,24.8,65,29.91,10.0,West,5.8,-,N/A,,Clear,260,2012-11-05 01:35:00
8:55 PM,35.6,26.6,70,29.91,10.0,West,6.9,-,N/A,,Clear,270,2012-11-05 01:55:00
9:15 PM,35.6,24.8,65,29.91,10.0,West,4.6,-,N/A,,Clear,260,2012-11-05 02:15:00
9:35 PM,35.6,24.8,65,29.92,10.0,West,8.1,-,N/A,,Clear,260,2012-11-05 02:35:00
9:55 PM,35.6,24.8,65,29.92,10.0,West,5.8,-,N/A,,Mostly Cloudy,270,2012-11-05 02:55:00
10:15 PM,35.6,24.8,65,29.91,10.0,West,6.9,-,N/A,,Overcast,270,2012-11-05 03:15:00
10:35 PM,35.6,26.6,70,29.91,10.0,WSW,8.1,-,N/A,,Overcast,250,2012-11-05 03:35:00
10:55 PM,35.6,24.8,65,29.91,10.0,West,4.6,-,N/A,,Overcast,270,2012-11-05 03:55:00